Location: Unspecified
(0.0000°N, 0.0000°E)
Time: 12:05:00
(UTC+00:00)

Transit 4A - Pass Details

Date: 17 December 2018
Orbit: 864 x 981 km, 66.8° (Epoch: 25 March)

Event Time Altitude Azimuth Distance (km) Brightness Sun altitude
Rises 13:23:19 0° 338° (NNW) 3,609 10.8 58.5°
Reaches altitude 10° 13:25:50 10° 337° (NNW) 2,680 10.3 58.1°
Maximum altitude 13:32:07 79° 251° (WSW) 993 9.6 57.0°
Drops below altitude 10° 13:38:31 10° 165° (SSE) 2,731 10.7 55.9°
Sets 13:41:06 0° 163° (SSE) 3,681 11.2 55.4°
